Hourly Data Report for September 20, 2017

All times are specified in Local Standard Time (LST). Add 1 hour to adjust for Daylight Saving Time where and when it is observed.

KUGAARUK CLIMATE
NUNAVUT

68°32'15.060" N
89°47'47.020" W
15.80 m
2303094
71407
NBB

Download Data

Hourly Data (September 2017)
Hourly Data Report for September 20, 2017
Temp Definition
°C
Dew Point Temp Definition
°C
Rel Hum Definition
%
Wind Dir Definition
10's deg

Wind Spd Definition
km/h
Visibility Definition
km
Stn Press Definition
kPa
Hmdx Definition


Wind Chill Definition


Weather Definition


TIME
00:00 -0.2 -1.3 92 3 9   102.39   -3 LegendNANA
01:00 -0.2 -1.3 92 5 8   102.43   -3 LegendNANA
02:00 -0.5 -1.4 94 2 14   102.45   -5 LegendNANA
03:00 -0.9 -1.5 95 1 14   102.47   -5 LegendNANA
04:00 -0.9 -1.4 97 3 12   102.51   -5 LegendNANA
05:00 -0.8 -1.2 97 5 9   102.53   -4 LegendNANA
06:00 -0.3 -0.9 95 4 8   102.58   -3 LegendNANA
07:00 0.1 -1.0 92 2 13   102.58     LegendNANA
08:00 0.5 -1.1 89 1 14   102.61     LegendNANA
09:00 1.0 -1.0 86 2 11   102.65     LegendNANA
10:00 1.8 -0.9 82 3 7   102.64     LegendNANA
11:00 2.7 -0.5 80 1 15   102.61     LegendNANA
12:00 2.9 -0.4 79 1 17   102.60     LegendNANA
13:00 3.5 -2.7 64 7 7   102.64     LegendNANA
14:00 2.9 -1.3 74 2 11   102.65     LegendNANA
15:00 2.3 -0.8 80 36 15   102.66     LegendNANA
16:00 2.2 -0.9 80 1 16   102.66     LegendNANA
17:00 1.5 -1.3 82 7 13   102.68     LegendNANA
18:00 1.1 -1.2 85 2 13   102.71     LegendNANA
19:00 0.2 -1.8 86 3 12   102.74     LegendNANA
20:00 -1.0 -2.4 90 3 11   102.72   -5 LegendNANA
21:00 -1.4 -2.8 90 3 12   102.71   -5 LegendNANA
22:00 -1.7 -2.6 93 6 9   102.72   -5 LegendNANA
23:00 -1.8 -2.8 93 5 11   102.70   -6 LegendNANA

Notes on Data Quality.

Legend

  • E = Estimated
  • M = Missing
  • NA = Not Available
  • ‡ = Partner data that is not subject to review by the National Climate Archives
Date modified: